sat.trackr.live / text

‹ back to catalog

KUIPER-00179

NORAD 67136 · 2025-301D

PAYLOAD ACTIVE UNKNOWN

§ Identity

Operator
Country
US
Launch date
2025-12-16
Launch site
AFETR
Launch vehicle
Mass (kg)
RCS (m²)

External: N2YO · Heavens-Above · Gunter

§ Orbital elements

Epoch: 2026-05-25T03:16:38.841024Z

Period
97.30 min
Inclination
51.8963°
Eccentricity
0.0000717
Mean motion
14.79931383 rev/d
Perigee alt
629.0 km
Apogee alt
630.0 km
Semi-major
7,007.7 km
B*
1.1723e-4
RAAN
87.5483°
Arg perigee
94.5910°
Mean anomaly
265.5134°
Rev number
2,523

§ Raw data

KUIPER-001791 67136U 25301D   26145.13656066  .00000673  00000+0  11723-3 0  99972 67136  51.8963  87.5483 0000717  94.5910 265.5134 14.79931383 25231

JSON: /api/v1/satellites/67136 · /tle

For live sub-satellite position, see the globe view (requires WebGL).

§ Visibility from observer

Set your observer location to see the next 7 days of passes ≥ 10°. The values pass through the URL so the page stays shareable.

No JS? Fill the form by hand. The geolocation button needs JavaScript.